Location: Chandolas
(44.4033°N, 4.2533°E)
Time: 17:25:18
(UTC+00:00)

SKYMED 2 - Pass Details

Date: 15 November 2019
Orbit: 621 x 623 km, 97.9° (Epoch: 05 December)

Event Time Altitude Azimuth Distance (km) Brightness Sun altitude
Rises 05:23:02 0° 183° (S) 2,890 7.1 -13.5°
Reaches altitude 10° 05:25:19 10° 191° (S) 1,988 6.2 -13.1°
Maximum altitude 05:29:25 41° 262° (W) 904 4.0 -12.4°
Drops below altitude 10° 05:33:32 10° 333° (NNW) 2,002 5.8 -11.7°
Sets 05:35:51 0° 341° (NNW) 2,914 6.7 -11.3°
